Skip Page Navigation
NASA JPL Caltech
NASA Logo - Jet Propulsion Laboratory + View the NASA Portal
+ Near-Earth Object (NEO) Program
Search JPL
JPL Home Earth Solar System Stars & Galaxies Technology
JPL Solar System Dynamics
BODIES ORBITS EPHEMERIDES TOOLS PHYSICAL DATA DISCOVERY FAQ SITE MAP
JPL Small-Body Database Browser
Search: [ help ]  
8670 (1991 OM1)
Classification: Main-belt Asteroid          SPK-ID: 2008670
Ephemeris | Orbit Diagram | Orbital Elements | Physical Parameters | Discovery Circumstances | Close-Approach Data ]

[ show orbit diagram ]
Orbital Elements at Epoch 2457000.5 (2014-Dec-09.0) TDB
Reference: JPL 6 (heliocentric ecliptic J2000)
 Element Value Uncertainty (1-sigma)   Units 
e .2051862236565231 4.9995e-08  
a 2.389432968755901 1.6235e-08 AU
q 1.899154241216483 1.2142e-07 AU
i 1.538956397903471 5.7902e-06 deg
node 295.2776210110459 0.00024234 deg
peri 333.6691438078657 0.00024285 deg
M 139.0702501432315 1.9559e-05 deg
tp 2456479.338363152282
(2013-Jul-05.83836315)
7.0981e-05 JED
period 1349.089320483327
3.69
1.3749e-05
3.764e-08
d
yr
n .2668466754084345 2.7196e-09 deg/d
Q 2.87971169629532 1.9566e-08 AU
  Orbit Determination Parameters
   # obs. used (total)      1131  
   data-arc span      16456 days (45.05 yr)  
   first obs. used      1969-09-13  
   last obs. used      2014-10-03  
   planetary ephem.      DE431  
   SB-pert. ephem.      SB431-BIG16  
   condition code      0  
   fit RMS      .45986  
   data source      ORB  
   producer      Otto Matic  
   solution date      2014-Oct-09 14:13:19  

Additional Information
 Earth MOID = .884703 AU 
 T_jup = 3.504 
[ show covariance matrix ]

Ephemeris | Orbit Diagram | Orbital Elements | Physical Parameters | Discovery Circumstances | Close-Approach Data ]

Physical Parameter Table
Parameter Symbol Value Units Sigma Reference Notes
absolute magnitude H 13.6 mag n/a MPO266004  

8670 (1991 OM1)          Discovered 1991-Jul-18 by Debehogne, H. at La Silla (809)
Reference: 19980511/Numbers.arcLast Updated: 2004-04-19

[ show close-approach data ]
Alternate Designations
 1991 OM1 = 1969 RG1 = 1985 XB2 
Ephemeris | Orbit Diagram | Orbital Elements | Physical Parameters | Discovery Circumstances | Close-Approach Data ]
ABOUT SSD CREDITS/AWARDS PRIVACY/COPYRIGHT GLOSSARY LINKS
FirstGov 2014-Nov-01 03:20 UT
(server date/time)  
NASA Home Page
Site Manager:   Donald K. Yeomans
Webmaster  Alan B. Chamberlin